sat.trackr.live / text

‹ back to catalog

STARLINK-30805

NORAD 58214 · 2023-170J

PAYLOAD ACTIVE UNKNOWN

§ Identity

Operator
Country
US
Launch date
2023-11-03
Launch site
AFETR
Launch vehicle
Mass (kg)
RCS (m²)

Purposes: comms

External: N2YO · Heavens-Above · Gunter

§ Orbital elements

Epoch: 2026-05-25T04:44:40.509312Z

Period
94.27 min
Inclination
43.0032°
Eccentricity
0.0001658
Mean motion
15.27581694 rev/d
Perigee alt
481.9 km
Apogee alt
484.2 km
Semi-major
6,861.2 km
B*
5.6321e-5
RAAN
121.8692°
Arg perigee
273.4550°
Mean anomaly
86.6112°
Rev number
14,200

§ Raw data

STARLINK-308051 58214U 23170J   26145.19769108  .00001288  00000+0  56321-4 0  99912 58214  43.0032 121.8692 0001658 273.4550  86.6112 15.27581694142008

JSON: /api/v1/satellites/58214 · /tle

For live sub-satellite position, see the globe view (requires WebGL).

§ Visibility from observer

Set your observer location to see the next 7 days of passes ≥ 10°. The values pass through the URL so the page stays shareable.

No JS? Fill the form by hand. The geolocation button needs JavaScript.